| time (UTC) | temp C | wind direction | speed KPH | gust KPH | rain 1hr cm | rain 24hr cm | rain mn cm | humidity % | barometer mb |
| 20260906082313 | 22 | 292 | 0.0 | 1.6 | 0.00 | 0.00 | 0.00 | 91 | 1011.6 |
| 20260906081813 | 22 | 292 | 0.0 | 3.2 | 0.00 | 0.00 | 0.00 | 91 | 1011.5 |
| 20260906081313 | 22 | 292 | 0.0 | 3.2 | 0.00 | 0.03 | 0.00 | 91 | 1011.5 |
| 20260906081031 | 22 | 292 | 0.0 | 1.6 | 0.00 | 0.03 | 0.00 | 91 | 1011.4 |
| 20260906080309 | 22 | 292 | 0.0 | 1.6 | 0.00 | 0.03 | 0.00 | 91 | 1011.5 |
| 20260906075809 | 22 | 292 | 0.0 | 1.6 | 0.00 | 0.05 | 0.00 | 91 | 1011.4 |
| 20260906075310 | 22 | 292 | 0.0 | 1.6 | 0.00 | 0.05 | 0.00 | 91 | 1011.4 |
| 20260906074809 | 22 | 292 | 0.0 | 1.6 | 0.00 | 0.05 | 0.00 | 91 | 1011.3 |
| 20260906074309 | 22 | 292 | 0.0 | 1.6 | 0.00 | 0.05 | 0.00 | 90 | 1011.3 |
| 20260906073809 | 22 | 292 | 1.6 | 3.2 | 0.00 | 0.05 | 0.00 | 90 | 1011.2 |
| 20260906073308 | 22 | 292 | 1.6 | 3.2 | 0.00 | 0.05 | 0.00 | 90 | 1011.2 |
| 20260906072809 | 22 | 292 | 0.0 | 1.6 | 0.00 | 0.05 | 0.00 | 90 | 1011.2 |
| 20260906072306 | 22 | 292 | 0.0 | 1.6 | 0.00 | 0.05 | 0.00 | 90 | 1011.2 |
| 20260906071805 | 22 | 292 | 0.0 | 1.6 | 0.00 | 0.05 | 0.00 | 90 | 1011.2 |
| 20260906071305 | 22 | 292 | 0.0 | 1.6 | 0.00 | 0.05 | 0.00 | 90 | 1011.2 |
| 20260906070805 | 23 | 292 | 0.0 | 3.2 | 0.00 | 0.05 | 0.00 | 90 | 1011.4 |
| 20260906070305 | 23 | 292 | 0.0 | 3.2 | 0.00 | 0.05 | 0.00 | 90 | 1011.4 |
| 20260906065805 | 23 | 292 | 1.6 | 3.2 | 0.00 | 0.05 | 0.00 | 90 | 1011.4 |
| 20260906065521 | 23 | 292 | 1.6 | 3.2 | 0.00 | 0.05 | 0.00 | 90 | 1011.3 |
| 20260906064802 | 23 | 292 | 0.0 | 3.2 | 0.00 | 0.05 | 0.00 | 89 | 1011.4 |
| 20260906064300 | 23 | 292 | 0.0 | 0.0 | 0.00 | 0.05 | 0.00 | 89 | 1011.4 |
| 20260906063758 | 23 | 292 | 0.0 | 1.6 | 0.00 | 0.05 | 0.00 | 89 | 1011.4 |
| 20260906063258 | 23 | 292 | 1.6 | 3.2 | 0.00 | 0.05 | 0.00 | 89 | 1011.7 |
| 20260906063017 | 23 | 292 | 1.6 | 3.2 | 0.00 | 0.05 | 0.00 | 89 | 1011.7 |
| 20260906062251 | 23 | 292 | 0.0 | 3.2 | 0.00 | 0.05 | 0.00 | 89 | 1011.7 |
| 20260906062006 | 23 | 292 | 0.0 | 1.6 | 0.00 | 0.05 | 0.00 | 89 | 1011.7 |
| 20260906061249 | 23 | 292 | 0.0 | 1.6 | 0.00 | 0.05 | 0.00 | 89 | 1011.8 |
| 20260906060748 | 23 | 292 | 0.0 | 1.6 | 0.00 | 0.05 | 0.00 | 89 | 1011.8 |
| 20260906060248 | 23 | 292 | 0.0 | 1.6 | 0.00 | 0.05 | 0.00 | 89 | 1011.8 |
| 20260906055748 | 23 | 292 | 1.6 | 3.2 | 0.00 | 0.05 | 0.00 | 89 | 1011.9 |
| 20260906055248 | 23 | 292 | 1.6 | 3.2 | 0.00 | 0.05 | 0.00 | 88 | 1012.0 |
| 20260906055004 | 23 | 292 | 1.6 | 3.2 | 0.00 | 0.05 | 0.00 | 88 | 1012.0 |
| 20260906054246 | 23 | 292 | 0.0 | 3.2 | 0.00 | 0.05 | 0.00 | 88 | 1012.0 |
| 20260906053746 | 23 | 292 | 0.0 | 1.6 | 0.00 | 0.05 | 0.00 | 88 | 1012.0 |
| 20260906053504 | 23 | 292 | 1.6 | 3.2 | 0.00 | 0.05 | 0.00 | 88 | 1012.2 |
| 20260906052744 | 23 | 292 | 0.0 | 3.2 | 0.00 | 0.05 | 0.00 | 88 | 1012.3 |
| 20260906052244 | 23 | 292 | 0.0 | 1.6 | 0.00 | 0.05 | 0.00 | 87 | 1012.2 |
| 20260906051742 | 23 | 292 | 0.0 | 0.0 | 0.00 | 0.05 | 0.00 | 87 | 1012.3 |
| 20260906051242 | 23 | 292 | 0.0 | 0.0 | 0.00 | 0.05 | 0.00 | 87 | 1012.3 |
| 20260906050740 | 23 | 292 | 0.0 | 0.0 | 0.00 | 0.05 | 0.00 | 87 | 1012.3 |
| 20260906050240 | 23 | 292 | 0.0 | 0.0 | 0.00 | 0.05 | 0.00 | 87 | 1012.4 |
| 20260906045734 | 23 | 292 | 0.0 | 0.0 | 0.00 | 0.05 | 0.00 | 87 | 1012.4 |
| 20260906045230 | 23 | 292 | 0.0 | 0.0 | 0.00 | 0.05 | 0.00 | 87 | 1012.4 |
| 20260906044730 | 23 | 292 | 0.0 | 1.6 | 0.00 | 0.05 | 0.00 | 87 | 1012.3 |
| 20260906044230 | 23 | 292 | 0.0 | 1.6 | 0.00 | 0.05 | 0.00 | 87 | 1012.4 |
| 20260906043957 | 23 | 292 | 0.0 | 1.6 | 0.00 | 0.05 | 0.00 | 87 | 1012.4 |
| 20260906043228 | 23 | 292 | 0.0 | 1.6 | 0.00 | 0.05 | 0.00 | 87 | 1012.5 |
| 20260906042957 | 23 | 292 | 0.0 | 1.6 | 0.00 | 0.05 | 0.00 | 87 | 1012.4 |
| 20260906042228 | 23 | 292 | 1.6 | 3.2 | 0.00 | 0.05 | 0.00 | 86 | 1012.5 |
| 20260906041944 | 23 | 292 | 1.6 | 3.2 | 0.00 | 0.05 | 0.00 | 86 | 1012.6 |
| 20260906041226 | 23 | 292 | 0.0 | 3.2 | 0.00 | 0.05 | 0.00 | 86 | 1012.6 |
| 20260906040726 | 23 | 292 | 0.0 | 1.6 | 0.00 | 0.05 | 0.00 | 86 | 1012.7 |
| 20260906040226 | 23 | 292 | 1.6 | 1.6 | 0.00 | 0.05 | 0.00 | 85 | 1012.8 |
| 20260906035726 | 23 | 292 | 0.0 | 1.6 | 0.00 | 0.05 | 0.05 | 85 | 1012.9 |
| 20260906035227 | 23 | 292 | 0.0 | 1.6 | 0.00 | 0.05 | 0.05 | 85 | 1012.9 |
| 20260906034725 | 23 | 292 | 1.6 | 3.2 | 0.00 | 0.05 | 0.05 | 84 | 1012.9 |
| 20260906034220 | 23 | 292 | 1.6 | 3.2 | 0.00 | 0.05 | 0.05 | 84 | 1012.9 |
| 20260906033719 | 23 | 292 | 0.0 | 1.6 | 0.00 | 0.05 | 0.05 | 83 | 1012.8 |
| 20260906033219 | 24 | 292 | 0.0 | 1.6 | 0.00 | 0.05 | 0.05 | 83 | 1012.9 |
| 20260906032720 | 24 | 292 | 0.0 | 0.0 | 0.00 | 0.05 | 0.05 | 82 | 1013.0 |
| 20260906032214 | 24 | 292 | 0.0 | 1.6 | 0.00 | 0.05 | 0.05 | 82 | 1013.1 |
| 20260906031712 | 24 | 292 | 0.0 | 1.6 | 0.00 | 0.05 | 0.05 | 81 | 1013.1 |
| 20260906031208 | 24 | 292 | 0.0 | 1.6 | 0.00 | 0.05 | 0.05 | 81 | 1013.1 |
| 20260906030707 | 24 | 292 | 0.0 | 1.6 | 0.00 | 0.05 | 0.05 | 81 | 1013.1 |
| 20260906030204 | 24 | 292 | 0.0 | 1.6 | 0.00 | 0.05 | 0.05 | 81 | 1013.1 |
| 20260906025704 | 24 | 292 | 0.0 | 1.6 | 0.00 | 0.05 | 0.05 | 81 | 1012.9 |
| 20260906025204 | 24 | 292 | 0.0 | 1.6 | 0.00 | 0.05 | 0.05 | 80 | 1012.8 |
| 20260906024702 | 25 | 292 | 0.0 | 1.6 | 0.00 | 0.05 | 0.05 | 80 | 1012.8 |
| 20260906024203 | 25 | 292 | 0.0 | 0.0 | 0.00 | 0.05 | 0.05 | 79 | 1012.7 |
| 20260906023703 | 25 | 292 | 0.0 | 1.6 | 0.00 | 0.05 | 0.05 | 79 | 1012.4 |
| 20260906023200 | 25 | 292 | 0.0 | 1.6 | 0.00 | 0.05 | 0.05 | 79 | 1012.4 |
| 20260906022922 | 25 | 292 | 0.0 | 1.6 | 0.00 | 0.05 | 0.05 | 78 | 1012.4 |
| 20260906022429 | 25 | 292 | 0.0 | 0.0 | 0.00 | 0.05 | 0.05 | 78 | 1012.4 |
| 20260906021701 | 25 | 292 | 0.0 | 1.6 | 0.00 | 0.05 | 0.05 | 78 | 1012.3 |
| 20260906021200 | 25 | 292 | 0.0 | 1.6 | 0.00 | 0.05 | 0.05 | 77 | 1012.4 |
| 20260906020700 | 25 | 292 | 0.0 | 1.6 | 0.00 | 0.05 | 0.05 | 77 | 1012.5 |
| 20260906020201 | 25 | 292 | 1.6 | 4.8 | 0.00 | 0.05 | 0.05 | 77 | 1012.6 |
| 20260906015158 | 25 | 292 | 1.6 | 4.8 | 0.00 | 0.05 | 0.05 | 76 | 1012.6 |
| 20260906014651 | 25 | 292 | 1.6 | 3.2 | 0.00 | 0.05 | 0.05 | 76 | 1012.3 |
| 20260906014146 | 25 | 292 | 1.6 | 3.2 | 0.00 | 0.05 | 0.05 | 75 | 1012.3 |
| 20260906013640 | 26 | 292 | 1.6 | 4.8 | 0.00 | 0.05 | 0.05 | 75 | 1012.3 |
| 20260906013134 | 26 | 292 | 1.6 | 4.8 | 0.00 | 0.05 | 0.05 | 75 | 1012.3 |
| 20260906012628 | 26 | 292 | 1.6 | 3.2 | 0.00 | 0.05 | 0.05 | 74 | 1012.4 |
| 20260906012122 | 26 | 292 | 0.0 | 3.2 | 0.00 | 0.05 | 0.05 | 74 | 1012.4 |
| 20260906011615 | 26 | 292 | 1.6 | 4.8 | 0.00 | 0.05 | 0.05 | 74 | 1012.3 |
| 20260906011110 | 26 | 292 | 1.6 | 4.8 | 0.00 | 0.05 | 0.05 | 74 | 1012.4 |
| 20260906010603 | 26 | 292 | 0.0 | 3.2 | 0.00 | 0.05 | 0.05 | 74 | 1012.3 |
| 20260906010322 | 26 | 292 | 0.0 | 3.2 | 0.00 | 0.05 | 0.05 | 73 | 1012.3 |
| 20260906005551 | 26 | 292 | 0.0 | 3.2 | 0.00 | 0.05 | 0.05 | 73 | 1012.4 |
| 20260906005314 | 27 | 292 | 1.6 | 3.2 | 0.00 | 0.05 | 0.05 | 72 | 1012.3 |
| 20260906004541 | 27 | 292 | 1.6 | 3.2 | 0.00 | 0.05 | 0.05 | 72 | 1012.1 |
| 20260906004034 | 27 | 292 | 0.0 | 3.2 | 0.00 | 0.05 | 0.05 | 72 | 1012.0 |
| 20260906003528 | 27 | 292 | 0.0 | 1.6 | 0.00 | 0.05 | 0.05 | 72 | 1012.0 |
| 20260906003022 | 27 | 292 | 1.6 | 3.2 | 0.00 | 0.05 | 0.05 | 72 | 1012.0 |
| 20260906002516 | 27 | 292 | 1.6 | 3.2 | 0.00 | 0.05 | 0.05 | 71 | 1011.8 |
| 20260906002010 | 27 | 292 | 1.6 | 4.8 | 0.00 | 0.05 | 0.05 | 71 | 1011.8 |
| 20260906001504 | 27 | 292 | 1.6 | 4.8 | 0.00 | 0.05 | 0.05 | 70 | 1011.8 |
| 20260906000958 | 28 | 292 | 1.6 | 4.8 | 0.00 | 0.05 | 0.05 | 70 | 1011.7 |
| 20260906000452 | 28 | 292 | 1.6 | 4.8 | 0.00 | 0.05 | 0.05 | 70 | 1011.7 |
| 20260905235946 | 28 | 292 | 1.6 | 4.8 | 0.00 | 0.05 | 0.05 | 69 | 1011.7 |
| 20260905235701 | 28 | 293 | 1.6 | 3.2 | 0.00 | 0.05 | 0.05 | 69 | 1011.7 |
| 20260905234933 | 28 | 293 | 1.6 | 3.2 | 0.00 | 0.05 | 0.05 | 68 | 1011.5 |
| 20260905234428 | 28 | 293 | 0.0 | 1.6 | 0.00 | 0.05 | 0.05 | 67 | 1011.5 |
| 20260905234153 | 28 | 293 | 0.0 | 1.6 | 0.00 | 0.05 | 0.05 | 67 | 1011.5 |
| 20260905233416 | 28 | 293 | 1.6 | 1.6 | 0.00 | 0.05 | 0.05 | 66 | 1011.4 |
| 20260905232910 | 28 | 293 | 1.6 | 1.6 | 0.00 | 0.05 | 0.05 | 65 | 1011.2 |
| 20260905232404 | 28 | 293 | 0.0 | 1.6 | 0.00 | 0.05 | 0.05 | 65 | 1011.2 |
| 20260905231858 | 28 | 293 | 0.0 | 3.2 | 0.00 | 0.05 | 0.05 | 65 | 1011.0 |
| 20260905231351 | 29 | 293 | 0.0 | 3.2 | 0.00 | 0.05 | 0.05 | 66 | 1010.9 |
| 20260905230846 | 29 | 293 | 0.0 | 3.2 | 0.00 | 0.05 | 0.05 | 66 | 1011.0 |
| 20260905230339 | 29 | 289 | 1.6 | 3.2 | 0.00 | 0.05 | 0.05 | 67 | 1010.9 |
| 20260905225834 | 29 | 289 | 1.6 | 3.2 | 0.00 | 0.05 | 0.05 | 66 | 1011.0 |
| 20260905225328 | 29 | 289 | 0.0 | 3.2 | 0.00 | 0.05 | 0.05 | 66 | 1011.0 |
| 20260905224822 | 29 | 289 | 1.6 | 4.8 | 0.00 | 0.05 | 0.05 | 66 | 1011.1 |
| 20260905224316 | 29 | 289 | 3.2 | 6.4 | 0.00 | 0.05 | 0.05 | 66 | 1011.1 |
| 20260905223809 | 29 | 288 | 3.2 | 6.4 | 0.00 | 0.05 | 0.05 | 66 | 1011.0 |
| 20260905223304 | 29 | 336 | 3.2 | 6.4 | 0.00 | 0.05 | 0.05 | 67 | 1010.9 |
| 20260905222759 | 29 | 336 | 3.2 | 6.4 | 0.00 | 0.05 | 0.05 | 67 | 1010.8 |
| 20260905222515 | 29 | 337 | 3.2 | 6.4 | 0.00 | 0.05 | 0.05 | 67 | 1010.8 |
| 20260905222009 | 29 | 344 | 1.6 | 6.4 | 0.00 | 0.05 | 0.05 | 67 | 1010.9 |
| 20260905221241 | 29 | 344 | 1.6 | 4.8 | 0.00 | 0.05 | 0.05 | 68 | 1010.9 |
| 20260905221000 | 29 | 344 | 3.2 | 6.4 | 0.00 | 0.05 | 0.05 | 67 | 1010.9 |
| 20260905215721 | 29 | 333 | 3.2 | 6.4 | 0.00 | 0.05 | 0.05 | 67 | 1010.9 |
| 20260905215216 | 29 | 329 | 3.2 | 8.0 | 0.00 | 0.05 | 0.05 | 67 | 1010.9 |
| 20260905214710 | 28 | 344 | 3.2 | 8.0 | 0.00 | 0.05 | 0.05 | 69 | 1010.8 |
| 20260905214203 | 28 | 332 | 3.2 | 8.0 | 0.00 | 0.05 | 0.05 | 69 | 1010.9 |
| 20260905213658 | 28 | 332 | 3.2 | 6.4 | 0.00 | 0.05 | 0.05 | 69 | 1011.0 |
| 20260905213151 | 28 | 334 | 3.2 | 8.0 | 0.00 | 0.05 | 0.05 | 68 | 1011.2 |
| 20260905212646 | 28 | 242 | 3.2 | 8.0 | 0.00 | 0.05 | 0.05 | 69 | 1011.3 |
| 20260905212139 | 28 | 327 | 1.6 | 4.8 | 0.00 | 0.05 | 0.05 | 69 | 1011.6 |
| 20260905211853 | 28 | 327 | 3.2 | 4.8 | 0.00 | 0.05 | 0.05 | 68 | 1011.8 |
| 20260905211127 | 28 | 327 | 3.2 | 4.8 | 0.00 | 0.05 | 0.05 | 67 | 1012.0 |
| 20260905210839 | 28 | 327 | 1.6 | 4.8 | 0.00 | 0.05 | 0.05 | 67 | 1012.0 |
| 20260905210116 | 29 | 327 | 1.6 | 6.4 | 0.00 | 0.05 | 0.05 | 67 | 1012.0 |
| 20260905205611 | 29 | 327 | 1.6 | 6.4 | 0.00 | 0.05 | 0.05 | 66 | 1012.0 |
| 20260905205110 | 29 | 254 | 1.6 | 4.8 | 0.00 | 0.05 | 0.05 | 66 | 1012.1 |
| 20260905204607 | 30 | 254 | 1.6 | 4.8 | 0.00 | 0.05 | 0.05 | 65 | 1012.1 |
| 20260905204106 | 30 | 254 | 1.6 | 4.8 | 0.00 | 0.05 | 0.05 | 64 | 1011.8 |
| 20260905203607 | 30 | 254 | 3.2 | 4.8 | 0.00 | 0.05 | 0.05 | 64 | 1011.7 |
| 20260905203332 | 30 | 254 | 4.8 | 9.7 | 0.00 | 0.05 | 0.05 | 62 | 1011.8 |
| 20260905202604 | 30 | 233 | 4.8 | 9.7 | 0.00 | 0.05 | 0.05 | 61 | 1011.8 |
| 20260905202102 | 30 | 302 | 4.8 | 9.7 | 0.00 | 0.05 | 0.05 | 60 | 1011.6 |
| 20260905201559 | 30 | 346 | 4.8 | 11.3 | 0.00 | 0.05 | 0.05 | 58 | 1011.5 |
| 20260905201100 | 31 | 303 | 4.8 | 11.3 | 0.00 | 0.05 | 0.05 | 56 | 1011.3 |
| 20260905200819 | 32 | 10 | 4.8 | 11.3 | 0.00 | 0.05 | 0.05 | 54 | 1011.6 |
| 20260905200058 | 32 | 0 | 4.8 | 12.9 | 0.00 | 0.05 | 0.05 | 52 | 1011.4 |
| 20260905195558 | 33 | 346 | 4.8 | 12.9 | 0.00 | 0.05 | 0.05 | 50 | 1011.3 |
| 20260905195057 | 34 | 72 | 4.8 | 12.9 | 0.00 | 0.05 | 0.05 | 49 | 1011.3 |
| 20260905194558 | 35 | 5 | 4.8 | 12.9 | 0.00 | 0.05 | 0.05 | 48 | 1011.3 |
| 20260905194059 | 36 | 349 | 4.8 | 12.9 | 0.00 | 0.05 | 0.05 | 46 | 1011.1 |
| 20260905193557 | 36 | 344 | 3.2 | 12.9 | 0.00 | 0.05 | 0.05 | 45 | 1010.8 |
| 20260905193058 | 36 | 320 | 3.2 | 8.0 | 0.00 | 0.05 | 0.05 | 44 | 1010.5 |
| 20260905192552 | 36 | 171 | 4.8 | 8.0 | 0.00 | 0.05 | 0.05 | 44 | 1010.7 |
| 20260905192046 | 36 | 183 | 4.8 | 11.3 | 0.00 | 0.05 | 0.05 | 44 | 1010.8 |
| 20260905191546 | 36 | 272 | 4.8 | 11.3 | 0.00 | 0.05 | 0.05 | 46 | 1011.0 |
| 20260905191044 | 37 | 326 | 4.8 | 14.5 | 0.00 | 0.05 | 0.05 | 43 | 1011.0 |
| 20260905190543 | 37 | 235 | 3.2 | 14.5 | 0.00 | 0.05 | 0.05 | 45 | 1010.8 |
| 20260905190039 | 37 | 327 | 3.2 | 11.3 | 0.00 | 0.05 | 0.05 | 46 | 1010.9 |
| 20260905185539 | 37 | 5 | 3.2 | 11.3 | 0.00 | 0.05 | 0.05 | 46 | 1011.1 |
| 20260905185258 | 37 | 16 | 3.2 | 9.7 | 0.00 | 0.05 | 0.05 | 47 | 1011.1 |
| 20260905184537 | 37 | 333 | 3.2 | 8.0 | 0.00 | 0.05 | 0.05 | 48 | 1011.3 |
| 20260905184038 | 37 | 346 | 4.8 | 8.0 | 0.00 | 0.05 | 0.05 | 46 | 1011.3 |
| 20260905183535 | 37 | 320 | 4.8 | 11.3 | 0.00 | 0.05 | 0.05 | 49 | 1011.3 |
| 20260905183035 | 36 | 273 | 4.8 | 11.3 | 0.00 | 0.05 | 0.05 | 47 | 1011.3 |
| 20260905182535 | 37 | 324 | 6.4 | 14.5 | 0.00 | 0.05 | 0.05 | 46 | 1011.4 |
| 20260905182256 | 37 | 319 | 6.4 | 14.5 | 0.00 | 0.05 | 0.05 | 45 | 1011.4 |
| 20260905181754 | 37 | 331 | 6.4 | 14.5 | 0.00 | 0.05 | 0.05 | 45 | 1011.6 |
| 20260905181253 | 37 | 235 | 4.8 | 11.3 | 0.00 | 0.05 | 0.05 | 47 | 1011.7 |
| 20260905180532 | 37 | 327 | 6.4 | 17.7 | 0.00 | 0.05 | 0.05 | 46 | 1011.8 |
| 20260905180031 | 37 | 279 | 6.4 | 17.7 | 0.00 | 0.05 | 0.05 | 48 | 1011.8 |
| 20260905175532 | 37 | 294 | 4.8 | 9.7 | 0.00 | 0.05 | 0.05 | 48 | 1012.0 |
| 20260905175251 | 36 | 317 | 4.8 | 14.5 | 0.00 | 0.05 | 0.05 | 46 | 1012.2 |
| 20260905174532 | 36 | 331 | 4.8 | 14.5 | 0.00 | 0.05 | 0.05 | 47 | 1012.3 |
| 20260905174032 | 36 | 316 | 4.8 | 12.9 | 0.00 | 0.05 | 0.05 | 48 | 1012.3 |
| 20260905173532 | 36 | 258 | 4.8 | 12.9 | 0.00 | 0.05 | 0.05 | 47 | 1012.5 |
| 20260905173032 | 36 | 252 | 4.8 | 16.1 | 0.00 | 0.05 | 0.05 | 49 | 1012.6 |
| 20260905172528 | 36 | 319 | 3.2 | 16.1 | 0.00 | 0.05 | 0.05 | 47 | 1012.7 |
| 20260905172028 | 36 | 337 | 3.2 | 6.4 | 0.00 | 0.05 | 0.05 | 50 | 1012.7 |
| 20260905171527 | 36 | 310 | 3.2 | 6.4 | 0.00 | 0.05 | 0.05 | 53 | 1012.8 |
| 20260905170528 | 36 | 26 | 3.2 | 6.4 | 0.00 | 0.05 | 0.05 | 52 | 1013.0 |
| 20260905170028 | 36 | 342 | 3.2 | 6.4 | 0.00 | 0.05 | 0.05 | 50 | 1013.1 |
| 20260905165528 | 35 | 48 | 3.2 | 6.4 | 0.00 | 0.05 | 0.05 | 52 | 1013.2 |
| 20260905165251 | 35 | 313 | 1.6 | 6.4 | 0.00 | 0.05 | 0.05 | 52 | 1013.2 |
| 20260905164529 | 35 | 17 | 3.2 | 6.4 | 0.00 | 0.05 | 0.05 | 50 | 1013.3 |
| 20260905164027 | 35 | 334 | 3.2 | 8.0 | 0.00 | 0.05 | 0.05 | 52 | 1013.3 |
| 20260905163751 | 35 | 94 | 3.2 | 8.0 | 0.00 | 0.05 | 0.05 | 54 | 1013.4 |
| 20260905163257 | 35 | 102 | 3.2 | 8.0 | 0.00 | 0.05 | 0.05 | 56 | 1013.5 |
| 20260905162751 | 35 | 302 | 3.2 | 8.0 | 0.00 | 0.05 | 0.05 | 57 | 1013.6 |
| 20260905162027 | 34 | 292 | 1.6 | 8.0 | 0.00 | 0.05 | 0.05 | 57 | 1013.5 |
| 20260905161525 | 34 | 241 | 3.2 | 6.4 | 0.00 | 0.05 | 0.05 | 56 | 1013.6 |
| 20260905160523 | 33 | 351 | 3.2 | 6.4 | 0.00 | 0.05 | 0.05 | 58 | 1013.6 |
| 20260905160025 | 33 | 338 | 4.8 | 9.7 | 0.00 | 0.05 | 0.05 | 61 | 1013.7 |
| 20260905155739 | 33 | 238 | 4.8 | 9.7 | 0.00 | 0.05 | 0.05 | 60 | 1013.8 |
| 20260905155021 | 33 | 242 | 3.2 | 8.0 | 0.00 | 0.05 | 0.05 | 63 | 1013.7 |
| 20260905154738 | 33 | 223 | 3.2 | 8.0 | 0.00 | 0.05 | 0.05 | 66 | 1013.8 |
| 20260905154246 | 33 | 321 | 3.2 | 12.9 | 0.00 | 0.05 | 0.05 | 63 | 1013.9 |
| 20260905153519 | 33 | 327 | 4.8 | 12.9 | 0.00 | 0.05 | 0.05 | 65 | 1013.9 |
| 20260905153017 | 32 | 234 | 3.2 | 9.7 | 0.00 | 0.05 | 0.05 | 69 | 1013.9 |
| 20260905152517 | 32 | 239 | 3.2 | 11.3 | 0.00 | 0.05 | 0.05 | 69 | 1014.0 |
| 20260905152016 | 32 | 263 | 4.8 | 11.3 | 0.00 | 0.05 | 0.05 | 69 | 1013.9 |
| 20260905151515 | 31 | 323 | 3.2 | 11.3 | 0.00 | 0.05 | 0.05 | 68 | 1013.9 |
| 20260905151015 | 31 | 240 | 3.2 | 11.3 | 0.00 | 0.05 | 0.05 | 69 | 1013.9 |
| 20260905150516 | 31 | 299 | 4.8 | 9.7 | 0.00 | 0.05 | 0.05 | 70 | 1013.9 |
| 20260905150016 | 31 | 219 | 4.8 | 9.7 | 0.00 | 0.05 | 0.05 | 71 | 1013.9 |
| 20260905145514 | 31 | 258 | 4.8 | 11.3 | 0.00 | 0.05 | 0.05 | 72 | 1014.0 |
| 20260905145014 | 30 | 230 | 3.2 | 11.3 | 0.00 | 0.05 | 0.05 | 74 | 1014.1 |
| 20260905144513 | 30 | 259 | 3.2 | 8.0 | 0.00 | 0.05 | 0.05 | 75 | 1014.0 |
| 20260905144011 | 30 | 273 | 3.2 | 8.0 | 0.00 | 0.05 | 0.05 | 76 | 1014.0 |
| 20260905143233 | 29 | 283 | 3.2 | 6.4 | 0.00 | 0.05 | 0.05 | 78 | 1014.0 |
| 20260905142733 | 29 | 248 | 3.2 | 11.3 | 0.00 | 0.05 | 0.05 | 82 | 1014.1 |
| 20260905142228 | 28 | 245 | 3.2 | 11.3 | 0.00 | 0.05 | 0.05 | 83 | 1014.1 |
| 20260905141503 | 28 | 240 | 3.2 | 6.4 | 0.00 | 0.05 | 0.05 | 83 | 1014.3 |
| 20260905141004 | 28 | 271 | 3.2 | 9.7 | 0.00 | 0.05 | 0.05 | 85 | 1014.1 |
| 20260905140503 | 27 | 268 | 4.8 | 9.7 | 0.00 | 0.05 | 0.05 | 85 | 1014.1 |
| 20260905140002 | 27 | 263 | 3.2 | 9.7 | 0.00 | 0.05 | 0.05 | 88 | 1014.3 |
| 20260905135724 | 26 | 271 | 4.8 | 9.7 | 0.00 | 0.05 | 0.05 | 89 | 1014.1 |
| 20260905134959 | 26 | 251 | 3.2 | 8.0 | 0.00 | 0.05 | 0.05 | 91 | 1014.3 |
| 20260905134459 | 26 | 252 | 3.2 | 8.0 | 0.00 | 0.05 | 0.05 | 92 | 1014.3 |
| 20260905134221 | 26 | 273 | 3.2 | 9.7 | 0.00 | 0.05 | 0.05 | 92 | 1014.4 |
| 20260905133456 | 25 | 270 | 3.2 | 9.7 | 0.00 | 0.05 | 0.05 | 92 | 1014.4 |
| 20260905132955 | 25 | 307 | 3.2 | 6.4 | 0.00 | 0.05 | 0.05 | 93 | 1014.5 |
| 20260905132719 | 25 | 248 | 3.2 | 9.7 | 0.00 | 0.05 | 0.05 | 93 | 1014.4 |
| 20260905131955 | 25 | 262 | 4.8 | 9.7 | 0.00 | 0.05 | 0.05 | 93 | 1014.5 |
| 20260905131455 | 25 | 307 | 3.2 | 6.4 | 0.00 | 0.05 | 0.05 | 94 | 1014.5 |
| 20260905131214 | 25 | 248 | 3.2 | 4.8 | 0.00 | 0.05 | 0.05 | 94 | 1014.5 |
| 20260905130453 | 25 | 271 | 3.2 | 8.0 | 0.00 | 0.05 | 0.05 | 94 | 1014.7 |
| 20260905125953 | 25 | 247 | 3.2 | 8.0 | 0.00 | 0.05 | 0.05 | 94 | 1014.7 |
| 20260905125221 | 24 | 296 | 3.2 | 8.0 | 0.00 | 0.05 | 0.05 | 94 | 1014.8 |
| 20260905123948 | 24 | 255 | 3.2 | 6.4 | 0.00 | 0.05 | 0.05 | 94 | 1014.7 |
| 20260905123444 | 24 | 298 | 3.2 | 6.4 | 0.00 | 0.05 | 0.05 | 94 | 1014.6 |
| 20260905122938 | 24 | 254 | 1.6 | 6.4 | 0.00 | 0.05 | 0.05 | 94 | 1014.6 |
| 20260905122431 | 24 | 252 | 1.6 | 4.8 | 0.00 | 0.05 | 0.05 | 94 | 1014.7 |
| 20260905121924 | 23 | 252 | 0.0 | 4.8 | 0.00 | 0.05 | 0.05 | 94 | 1014.6 |
| 20260905121419 | 23 | 277 | 0.0 | 0.0 | 0.00 | 0.05 | 0.05 | 94 | 1014.7 |
| 20260905120912 | 23 | 277 | 0.0 | 0.0 | 0.00 | 0.05 | 0.05 | 94 | 1014.7 |
| 20260905120406 | 23 | 277 | 0.0 | 0.0 | 0.00 | 0.05 | 0.05 | 93 | 1014.6 |
| 20260905115903 | 23 | 277 | 0.0 | 0.0 | 0.00 | 0.05 | 0.05 | 93 | 1014.5 |
| 20260905115402 | 23 | 277 | 0.0 | 0.0 | 0.00 | 0.05 | 0.05 | 93 | 1014.4 |
| 20260905114902 | 23 | 277 | 0.0 | 0.0 | 0.00 | 0.05 | 0.05 | 93 | 1014.4 |
| 20260905114400 | 23 | 277 | 0.0 | 0.0 | 0.00 | 0.05 | 0.05 | 93 | 1014.4 |
| 20260905114115 | 23 | 277 | 0.0 | 0.0 | 0.00 | 0.05 | 0.05 | 93 | 1014.3 |
| 20260905113355 | 23 | 277 | 0.0 | 0.0 | 0.00 | 0.05 | 0.05 | 93 | 1014.3 |
| 20260905112854 | 23 | 277 | 0.0 | 0.0 | 0.00 | 0.05 | 0.05 | 93 | 1014.3 |
| 20260905112352 | 23 | 277 | 0.0 | 0.0 | 0.00 | 0.05 | 0.05 | 93 | 1014.0 |
| 20260905111850 | 23 | 277 | 0.0 | 0.0 | 0.00 | 0.05 | 0.05 | 93 | 1013.9 |
| 20260905111351 | 23 | 277 | 0.0 | 1.6 | 0.00 | 0.05 | 0.05 | 92 | 1013.8 |
| 20260905111109 | 23 | 277 | 0.0 | 1.6 | 0.00 | 0.05 | 0.05 | 92 | 1013.7 |
| 20260905110611 | 23 | 277 | 0.0 | 0.0 | 0.00 | 0.05 | 0.05 | 92 | 1013.6 |
| 20260905105849 | 23 | 277 | 0.0 | 0.0 | 0.00 | 0.05 | 0.05 | 92 | 1013.6 |
| 20260905105347 | 23 | 277 | 0.0 | 0.0 | 0.00 | 0.05 | 0.05 | 92 | 1013.6 |
| 20260905104845 | 23 | 277 | 0.0 | 0.0 | 0.00 | 0.05 | 0.05 | 92 | 1013.5 |
| 20260905104345 | 23 | 277 | 0.0 | 0.0 | 0.00 | 0.05 | 0.05 | 92 | 1013.4 |
| 20260905104107 | 23 | 277 | 0.0 | 0.0 | 0.00 | 0.05 | 0.05 | 92 | 1013.4 |
| 20260905103343 | 23 | 277 | 0.0 | 0.0 | 0.00 | 0.05 | 0.05 | 92 | 1013.3 |
| 20260905102841 | 23 | 277 | 0.0 | 0.0 | 0.00 | 0.05 | 0.05 | 92 | 1013.2 |
| 20260905102339 | 23 | 277 | 0.0 | 1.6 | 0.00 | 0.05 | 0.05 | 92 | 1013.2 |
| 20260905102058 | 23 | 277 | 0.0 | 1.6 | 0.00 | 0.05 | 0.05 | 92 | 1013.2 |
| 20260905101331 | 23 | 277 | 0.0 | 0.0 | 0.00 | 0.05 | 0.05 | 91 | 1013.1 |
| 20260905100825 | 23 | 277 | 0.0 | 0.0 | 0.00 | 0.05 | 0.05 | 91 | 1013.1 |
| 20260905100318 | 23 | 277 | 0.0 | 0.0 | 0.00 | 0.05 | 0.05 | 91 | 1013.1 |
| 20260905095813 | 23 | 277 | 0.0 | 0.0 | 0.00 | 0.05 | 0.05 | 91 | 1013.0 |
| 20260905095307 | 23 | 277 | 0.0 | 0.0 | 0.00 | 0.05 | 0.05 | 91 | 1013.0 |
| 20260905094801 | 23 | 277 | 0.0 | 0.0 | 0.00 | 0.05 | 0.05 | 91 | 1013.0 |
| 20260905094259 | 23 | 277 | 0.0 | 0.0 | 0.00 | 0.05 | 0.05 | 91 | 1013.0 |
| 20260905093746 | 23 | 277 | 0.0 | 0.0 | 0.00 | 0.05 | 0.05 | 91 | 1013.0 |
| 20260905093506 | 23 | 277 | 0.0 | 0.0 | 0.00 | 0.05 | 0.05 | 91 | 1012.9 |
| 20260905092954 | 23 | 277 | 0.0 | 0.0 | 0.00 | 0.05 | 0.05 | 91 | 1012.9 |
| 20260905092449 | 23 | 277 | 0.0 | 0.0 | 0.00 | 0.05 | 0.05 | 91 | 1013.0 |
| 20260905091939 | 24 | 277 | 0.0 | 1.6 | 0.00 | 0.05 | 0.05 | 91 | 1013.0 |
| 20260905091216 | 24 | 277 | 0.0 | 1.6 | 0.03 | 0.05 | 0.05 | 91 | 1013.1 |
| 20260905090708 | 24 | 277 | 0.0 | 1.6 | 0.03 | 0.05 | 0.05 | 91 | 1013.2 |
| 20260905090209 | 24 | 277 | 0.0 | 1.6 | 0.03 | 0.05 | 0.05 | 90 | 1013.1 |
| 20260905085709 | 24 | 277 | 0.0 | 0.0 | 0.05 | 0.05 | 0.05 | 90 | 1013.2 |
| 20260905085208 | 24 | 277 | 0.0 | 0.0 | 0.05 | 0.05 | 0.05 | 90 | 1013.2 |
| 20260905084707 | 24 | 277 | 0.0 | 0.0 | 0.05 | 0.05 | 0.05 | 90 | 1013.3 |
| 20260905084205 | 24 | 277 | 0.0 | 1.6 | 0.05 | 0.05 | 0.05 | 90 | 1013.3 |
| 20260905083703 | 24 | 277 | 0.0 | 1.6 | 0.05 | 0.05 | 0.05 | 90 | 1013.3 |
| 20260905083203 | 25 | 277 | 0.0 | 1.6 | 0.05 | 0.05 | 0.05 | 90 | 1013.4 |